Grosse Ile, MI

1:03 AM EST on December 18, 2017 (GMT -0500)
Grosse Ile Municipal

Weather History for KONZ - September, 2013

Change the Weather History Date:

Saturday, September 21, 2013

  Actual Average (KDTW) Record (KDTW)
Temperature  
Mean Temperature 63 °F -  
Max Temperature 69 °F 68 °F 92 °F (1895)
Min Temperature 55 °F 51 °F 35 °F (1962)
Degree Days  
Heating Degree Days 2    
Growing Degree Days 13 (Base 50)    
Moisture  
Dew Point 55 °F    
Average Humidity 74    
Maximum Humidity 94    
Minimum Humidity 46    
Precipitation  
Precipitation 0.46 in - - ()
Sea Level Pressure  
Sea Level Pressure 29.73 in    
Wind  
Wind Speed 7 mph (WNW)    
Max Wind Speed 17 mph    
Max Gust Speed 26 mph    
Visibility 10 miles    
Events Rain    
Averages and records for this station are not official NWS values.
T = Trace of Precipitation, MM = Missing Value Source: NWS Daily Summary

Daily Weather History Graph

Daily Weather History Graph

Search for Another Location

Airport or City:

Trip Planner

Search our weather history database for the weather conditions in past years. The results will help you decide how hot, cold, wet, or windy it might be!

Date:

Astronomy

Sep. 21, 2013 Rise Set
Actual Time 7:19 AM EDT 7:31 PM EDT
Civil Twilight 6:51 AM EDT 7:59 PM EDT
Nautical Twilight 6:18 AM EDT 8:31 PM EDT
Astronomical Twilight 5:44 AM EDT 9:05 PM EDT
Moon 8:37 PM EDT (9/21) 9:39 AM EDT (9/21)
Length of Visible Light 13h 07m
Length of Day
12h 11m
Waning Gibbous, 94% of the Moon is Illuminated
Sep 21
Waning Gibbous
Sep 26
Last Quarter
Oct 4
New
Oct 11
First Quarter
Oct 18
Full

Hourly Weather History & Observations

Time (EDT) Temp. Dew Point Humidity Pressure Visibility Wind Dir Wind Speed Gust Speed Precip Events Conditions
12:14 AM 69.8 °F 66.2 °F 88% 29.73 in 7.0 mi SSW 5.8 mph - 0.02 in Rain Light Rain
12:34 AM 69.8 °F 66.2 °F 88% 29.73 in 7.0 mi Calm Calm - 0.06 in Rain Rain
12:54 AM 68.0 °F 66.2 °F 94% 29.73 in 10.0 mi West 9.2 mph - 0.09 in Rain Light Rain
1:14 AM 66.2 °F 62.6 °F 88% 29.74 in 10.0 mi WNW 9.2 mph - 0.02 in Rain Rain
1:34 AM 64.4 °F 60.8 °F 88% 29.73 in 10.0 mi West 3.5 mph - 0.08 in Rain Heavy Rain
1:54 AM 64.4 °F 60.8 °F 88% 29.73 in 7.0 mi Calm Calm - 0.20 in Rain Heavy Rain
2:14 AM 64.4 °F 60.8 °F 88% 29.72 in 10.0 mi Calm Calm - 0.02 in Rain Light Rain
2:34 AM 64.4 °F 60.8 °F 88% 29.72 in 10.0 mi Calm Calm - 0.03 in Rain Rain
2:54 AM 64.4 °F 62.6 °F 94% 29.72 in 10.0 mi Calm Calm - 0.05 in Rain Rain
3:14 AM 64.4 °F 62.6 °F 94% 29.71 in 7.0 mi Calm Calm - 0.02 in Rain Light Rain
3:34 AM 64.4 °F 62.6 °F 94% 29.70 in 10.0 mi SSW 3.5 mph - 0.04 in Rain Light Rain
3:54 AM 64.4 °F 62.6 °F 94% 29.70 in 7.0 mi Calm Calm - 0.08 in Rain Rain
4:14 AM 64.4 °F 62.6 °F 94% 29.69 in 5.0 mi South 3.5 mph - 0.03 in Rain Rain
4:34 AM 66.2 °F 62.6 °F 88% 29.68 in 5.0 mi Calm Calm - 0.04 in   Light Drizzle
4:54 AM 64.4 °F 62.6 °F 94% 29.68 in 5.0 mi West 3.5 mph - 0.04 in   Light Drizzle
5:14 AM 64.4 °F 62.6 °F 94% 29.68 in 5.0 mi West 4.6 mph - N/A   Overcast
5:34 AM 64.4 °F 60.8 °F 88% 29.68 in 10.0 mi WNW 6.9 mph - N/A   Mostly Cloudy
5:53 AM 64.4 °F 60.8 °F 88% 29.67 in 10.0 mi WNW 8.1 mph - N/A   Overcast
6:14 AM 64.4 °F 60.8 °F 88% 29.67 in 10.0 mi WNW 8.1 mph - N/A   Overcast
6:34 AM 62.6 °F 60.8 °F 94% 29.68 in 10.0 mi WNW 8.1 mph - N/A   Scattered Clouds
6:54 AM 62.6 °F 60.8 °F 94% 29.68 in 10.0 mi WNW 6.9 mph - N/A   Mostly Cloudy
7:14 AM 62.6 °F 59.0 °F 88% 29.68 in 10.0 mi WNW 8.1 mph - N/A   Scattered Clouds
7:35 AM 62.6 °F 59.0 °F 88% 29.68 in 10.0 mi WNW 6.9 mph - N/A   Scattered Clouds
7:54 AM 62.6 °F 57.2 °F 82% 29.68 in 10.0 mi WNW 5.8 mph - N/A   Scattered Clouds
8:14 AM 62.6 °F 57.2 °F 82% 29.68 in 10.0 mi WNW 6.9 mph - N/A   Clear
8:34 AM 60.8 °F 57.2 °F 88% 29.68 in 10.0 mi West 5.8 mph - N/A   Clear
8:54 AM 60.8 °F 57.2 °F 88% 29.69 in 10.0 mi West 8.1 mph - N/A   Clear
9:14 AM 60.8 °F 57.2 °F 88% 29.70 in 10.0 mi WNW 8.1 mph - N/A   Clear
9:34 AM 60.8 °F 57.2 °F 88% 29.70 in 10.0 mi WNW 10.4 mph - N/A   Scattered Clouds
9:54 AM 60.8 °F 57.2 °F 88% 29.71 in 10.0 mi WNW 9.2 mph - N/A   Mostly Cloudy
10:14 AM 60.8 °F 57.2 °F 88% 29.71 in 10.0 mi West 8.1 mph - N/A   Scattered Clouds
10:34 AM 60.8 °F 57.2 °F 88% 29.71 in 10.0 mi WNW 6.9 mph - N/A   Scattered Clouds
10:54 AM 62.6 °F 57.2 °F 82% 29.71 in 10.0 mi WNW 6.9 mph - N/A   Scattered Clouds
11:14 AM 64.4 °F 59.0 °F 83% 29.71 in 10.0 mi WNW 9.2 mph - N/A   Scattered Clouds
11:34 AM 66.2 °F 59.0 °F 78% 29.71 in 10.0 mi WNW 9.2 mph - N/A   Mostly Cloudy
11:54 AM 66.2 °F 57.2 °F 73% 29.71 in 10.0 mi WNW 11.5 mph 17.3 mph N/A   Mostly Cloudy
12:14 PM 66.2 °F 57.2 °F 73% 29.71 in 10.0 mi NW 11.5 mph 16.1 mph N/A   Scattered Clouds
12:34 PM 68.0 °F 57.2 °F 68% 29.70 in 10.0 mi NW 11.5 mph 18.4 mph N/A   Scattered Clouds
12:54 PM 68.0 °F 57.2 °F 68% 29.71 in 10.0 mi NW 10.4 mph 20.7 mph N/A   Mostly Cloudy
1:14 PM 64.4 °F 55.4 °F 73% 29.72 in 10.0 mi NNW 10.4 mph 26.5 mph N/A Rain Light Rain
1:34 PM 66.2 °F 55.4 °F 68% 29.72 in 10.0 mi NW 17.3 mph 23.0 mph N/A   Mostly Cloudy
1:54 PM 68.0 °F 55.4 °F 64% 29.72 in 10.0 mi NW 17.3 mph 25.3 mph N/A   Scattered Clouds
2:14 PM 68.0 °F 55.4 °F 64% 29.72 in 10.0 mi NW 13.8 mph 19.6 mph N/A   Scattered Clouds
2:34 PM 66.2 °F 53.6 °F 64% 29.73 in 10.0 mi NW 15.0 mph 20.7 mph N/A   Scattered Clouds
2:54 PM 69.8 °F 53.6 °F 56% 29.73 in 10.0 mi NW 13.8 mph - N/A   Scattered Clouds
3:14 PM 66.2 °F 53.6 °F 64% 29.73 in 10.0 mi NNW 11.5 mph 19.6 mph N/A   Scattered Clouds
3:34 PM 68.0 °F 53.6 °F 60% 29.73 in 10.0 mi WNW 13.8 mph 24.2 mph N/A   Scattered Clouds
3:54 PM 69.8 °F 53.6 °F 56% 29.73 in 10.0 mi NW 12.7 mph 17.3 mph N/A   Scattered Clouds
4:14 PM 69.8 °F 50.0 °F 49% 29.73 in 10.0 mi NNW 15.0 mph 18.4 mph N/A   Clear
4:34 PM 69.8 °F 51.8 °F 53% 29.73 in 10.0 mi NW 12.7 mph 20.7 mph N/A   Scattered Clouds
4:54 PM 69.8 °F 48.2 °F 46% 29.73 in 10.0 mi WNW 13.8 mph - N/A   Scattered Clouds
5:14 PM 69.8 °F 50.0 °F 49% 29.74 in 10.0 mi WNW 11.5 mph - N/A   Scattered Clouds
5:34 PM 66.2 °F 48.2 °F 52% 29.75 in 10.0 mi NW 11.5 mph - N/A   Scattered Clouds
5:54 PM 66.2 °F 46.4 °F 49% 29.75 in 10.0 mi NW 12.7 mph 20.7 mph N/A   Scattered Clouds
6:13 PM 68.0 °F 46.4 °F 46% 29.76 in 10.0 mi WNW 10.4 mph 16.1 mph N/A   Scattered Clouds
6:34 PM 66.2 °F 46.4 °F 49% 29.76 in 10.0 mi WNW 9.2 mph - N/A   Scattered Clouds
6:54 PM 64.4 °F 46.4 °F 52% 29.77 in 10.0 mi WNW 9.2 mph - N/A   Clear
7:14 PM 64.4 °F 46.4 °F 52% 29.77 in 10.0 mi NW 8.1 mph - N/A   Scattered Clouds
7:34 PM 62.6 °F 48.2 °F 59% 29.78 in 10.0 mi WNW 6.9 mph - N/A   Overcast
7:53 PM 62.6 °F 46.4 °F 55% 29.78 in 10.0 mi WNW 10.4 mph - N/A   Overcast
8:14 PM 62.6 °F 46.4 °F 55% 29.79 in 10.0 mi NW 10.4 mph - N/A   Overcast
8:34 PM 62.6 °F 46.4 °F 55% 29.80 in 10.0 mi NW 9.2 mph - N/A   Overcast
8:54 PM 62.6 °F 46.4 °F 55% 29.81 in 10.0 mi NW 13.8 mph 18.4 mph N/A   Mostly Cloudy
9:14 PM 60.8 °F 46.4 °F 59% 29.81 in 10.0 mi NNW 12.7 mph - N/A   Scattered Clouds
9:34 PM 60.8 °F 46.4 °F 59% 29.82 in 10.0 mi NW 11.5 mph - N/A   Mostly Cloudy
9:54 PM 60.8 °F 48.2 °F 63% 29.82 in 10.0 mi NNW 10.4 mph - N/A   Overcast
10:14 PM 60.8 °F 46.4 °F 59% 29.83 in 10.0 mi NNW 11.5 mph 16.1 mph N/A   Overcast
10:34 PM 59.0 °F 46.4 °F 63% 29.84 in 10.0 mi NNW 11.5 mph - N/A   Overcast
10:54 PM 57.2 °F 48.2 °F 72% 29.84 in 10.0 mi NNW 10.4 mph - N/A   Scattered Clouds
11:14 PM 57.2 °F 48.2 °F 72% 29.85 in 10.0 mi NNW 9.2 mph - N/A   Clear
11:34 PM 57.2 °F 46.4 °F 67% 29.85 in 10.0 mi NNW 10.4 mph - N/A   Scattered Clouds
11:54 PM 55.4 °F 46.4 °F 72% 29.85 in 10.0 mi NNW 8.1 mph - N/A   Scattered Clouds